Theta_e
335 335 329 325 324 323 323 322 320 316 316 323 323 335 335 335 337 342 343 335 330 327 325 324 326 328 331 332 332 332 334 336 336 336 337 338 339 341
328 333 334 326 327 324 324 323 322 319 316 321 322 329 336 336 336 341 340 331 329 326 324 323 323 323 324 326 326 328 330 330 330 329 330 331 333 335
333 330 330 334 325 323 323 322 321 320 318 320 321 328 336 340 339 342 339 339 337 325 325 323 320 320 321 322 324 324 327 327 325 325 326 327 329 331
330 328 326 325 332 331 325 329 323 325 321 323 323 323 332 336 339 341 336 336 336 329 324 322 319 318 318 319 320 321 320 320 321 322 323 325 327 330
330 329 328 328 328 325 328 325 323 324 323 322 320 322 326 329 330 336 337 338 337 332 322 322 320 318 318 317 317 316 315 315 313 315 317 320 323 326
324 327 327 327 327 327 327 327 327 324 323 321 320 320 323 328 327 326 326 331 333 333 330 326 326 321 317 316 315 316 313 311 310 311 312 313 315 318
318 319 323 323 320 322 325 325 326 322 320 318 318 318 318 318 322 325 325 328 332 333 334 338 339 336 328 316 322 319 315 310 309 310 310 309 309 311
309 311 314 317 318 313 314 314 320 324 322 317 317 317 322 323 321 324 325 323 323 333 333 333 339 339 340 336 322 318 311 309 308 307 307 307 306 307
308 309 311 313 315 319 315 311 312 310 311 322 321 322 322 325 327 328 328 325 325 334 335 332 339 337 341 338 315 311 308 307 306 306 305 305 304 304
309 310 312 314 317 318 319 319 322 325 324 321 320 317 317 325 330 330 328 332 331 333 337 327 338 337 343 331 312 308 306 304 304 305 304 303 302 301
308 309 310 315 309 301 314 320 321 322 317 307 308 309 305 306 316 323 320 320 321 325 329 324 325 332 335 332 325 307 305 303 303 303 303 302 300 299
309 311 307 310 299 298 305 314 311 311 310 310 310 306 308 312 308 323 320 318 315 316 324 320 322 326 321 330 329 325 316 303 302 301 302 301 301 321
307 312 312 301 301 299 297 311 309 311 310 314 312 314 313 314 316 318 320 318 314 315 322 322 321 322 319 322 322 322 326 315 317 307 299 299 301 311
306 307 309 300 302 300 302 297 298 305 313 312 313 313 312 313 316 317 318 319 320 322 325 327 319 320 320 320 317 317 318 317 316 311 305 300 298 298
308 305 298 299 298 303 296 297 296 315 314 311 313 314 316 318 318 318 320 320 322 322 324 327 328 324 324 322 319 317 313 312 311 307 307 307 305 304
303 311 306 303 301 302 307 309 318 321 321 316 315 317 319 319 320 321 319 318 317 317 321 327 329 331 324 328 325 317 316 310 307 305 304 304 303 306
310 314 313 312 312 313 316 318 319 321 320 320 319 320 319 320 321 323 325 321 320 317 316 318 323 319 312 314 321 318 309 305 304 302 299 297 297 299
311 310 311 311 312 316 316 317 319 315 320 321 322 322 320 322 323 326 326 324 320 317 313 313 313 314 313 308 304 311 307 302 301 301 300 296 293 295
314 314 314 313 315 316 317 316 315 317 320 319 321 322 323 324 323 325 325 322 320 318 318 316 315 316 310 303 301 297 299 300 298 296 298 298 292 292
315 316 314 316 316 314 314 314 315 317 318 318 319 320 322 321 323 325 325 322 321 322 321 321 320 318 313 303 293 294 294 298 295 292 290 290 290 291
314 313 317 319 318 316 316 316 316 316 316 318 319 320 321 323 323 324 325 310 312 323 318 317 310 298 302 300 292 291 292 294 297 294 292 290 289 289
313 317 317 321 319 318 317 316 317 316 316 316 316 316 319 320 322 323 326 324 324 322 308 303 307 309 307 296 290 290 291 293 295 295 294 295 293 287
317 319 319 318 320 320 320 319 319 319 319 319 318 317 317 317 323 326 329 327 322 310 308 307 305 302 299 295 291 291 290 292 293 292 292 294 295 294
Wind_Speed
13 12 12 11 11 12 11 11 13 14 14 13 14 14 11 12 12 12 13 12 11 12 13 16 20 16 15 16 14 14 15 14 13 12 10 12 11 11
12 14 13 13 13 12 12 13 13 14 16 13 12 15 13 12 14 11 12 8 12 13 14 17 14 10 11 14 14 14 16 13 12 10 10 12 10 12
16 17 17 15 14 14 13 13 13 14 16 14 14 15 16 14 14 14 13 14 11 15 15 15 14 12 14 14 15 16 15 13 12 11 11 12 12 12
20 20 21 15 17 16 14 15 15 14 15 18 15 15 17 15 14 15 14 12 12 9 15 14 15 15 17 16 14 13 13 13 13 11 9 12 9 9
22 21 21 20 19 16 16 15 15 13 14 15 14 14 14 13 14 14 12 14 12 13 11 13 15 17 17 14 14 14 13 14 11 9 10 10 9 7
20 21 22 22 22 19 17 17 15 15 15 15 15 15 15 14 13 13 13 10 13 13 12 2 12 13 14 15 16 16 14 13 11 11 10 9 8 7
21 22 21 23 27 23 16 18 18 16 15 16 16 15 15 14 14 13 14 13 14 13 10 8 8 8 9 10 12 15 15 12 11 10 9 8 7 6
18 20 21 26 23 23 24 23 21 18 18 17 17 17 18 16 15 14 14 10 14 12 12 12 11 11 9 9 12 16 13 12 11 10 8 8 8 8
19 18 19 16 22 23 22 24 28 26 27 21 21 20 21 18 16 16 16 13 13 10 10 10 9 10 9 5 15 14 13 12 11 10 9 7 8 9
18 19 20 20 21 22 23 22 22 21 20 18 20 21 21 18 18 15 14 13 10 8 7 7 9 7 7 8 7 7 9 9 11 10 9 8 9 9
18 15 19 20 16 11 17 23 23 20 13 13 23 20 19 16 12 5 9 6 5 5 4 1 4 7 7 9 8 5 7 8 8 9 9 10 10 12
16 17 17 10 11 14 16 21 19 12 7 4 4 5 9 8 13 11 7 6 2 2 3 3 4 5 5 7 5 4 5 6 6 7 9 11 15 8
12 10 4 7 12 16 19 6 10 8 6 7 5 5 5 5 4 3 5 4 2 1 6 4 4 6 6 6 4 3 4 5 5 6 9 5 3 12
12 7 6 6 10 20 8 5 6 5 5 5 6 6 5 4 4 6 3 3 3 3 8 6 3 6 6 4 4 3 4 5 5 6 6 11 15 13
8 10 3 2 3 9 6 10 10 8 8 7 8 7 5 5 3 8 7 7 4 3 3 4 4 5 7 6 6 4 4 3 5 5 5 6 5 4
10 8 2 4 4 8 5 7 9 2 3 6 7 7 6 5 4 4 6 5 5 5 3 1 3 4 4 5 7 7 5 4 4 5 6 6 6 4
5 1 1 3 6 6 4 4 6 6 4 5 8 7 6 6 7 7 6 7 6 7 4 2 5 9 10 11 5 7 6 5 5 7 6 7 7 6
3 0 4 5 5 4 5 5 4 2 4 7 4 5 5 6 6 6 7 7 5 5 4 4 7 6 3 9 20 7 6 6 6 7 7 9 8 7
3 4 4 4 5 6 7 6 5 4 4 5 5 4 3 5 4 5 5 6 5 6 7 6 5 3 3 3 3 18 6 7 8 8 6 6 8 7
1 3 2 3 3 7 7 6 6 5 5 5 4 4 2 3 5 5 6 7 6 4 6 7 6 2 2 5 5 4 10 8 9 10 11 11 9 15
2 0 4 2 5 6 7 7 7 7 6 6 5 4 3 2 2 7 6 5 7 6 6 5 5 11 10 10 7 5 9 19 10 14 13 11 9 7
4 4 3 2 5 5 6 7 5 4 5 5 5 4 3 3 3 3 6 4 5 6 6 7 8 8 6 7 11 10 9 10 10 14 12 2 6 8
5 3 5 4 6 4 3 4 4 4 4 4 5 5 4 4 3 3 2 5 7 8 9 7 6 8 8 8 11 9 16 11 6 7 6 9 16 23
Wind_Direction
242 241 247 261 265 270 272 275 280 284 283 286 288 292 284 268 273 293 297 295 227 223 236 233 234 224 216 206 191 200 211 205 203 208 219 249 249 252
247 246 241 250 254 255 260 268 275 280 283 285 283 287 291 288 288 275 272 272 247 216 224 235 235 220 212 215 206 198 215 197 203 194 214 240 248 248
242 250 251 247 252 255 256 258 262 269 276 277 287 289 287 283 284 284 284 280 272 209 213 224 224 214 222 230 230 201 207 188 191 203 217 234 240 249
245 248 251 249 242 244 255 261 265 271 281 286 290 287 278 280 282 277 274 270 276 238 206 215 219 219 217 225 224 218 184 185 200 201 221 240 243 241
257 255 252 248 249 251 252 256 256 251 255 265 282 282 280 285 282 281 264 262 262 263 218 219 227 215 216 213 210 200 192 196 189 191 213 228 232 229
265 261 258 256 253 249 248 248 254 261 263 267 269 269 266 270 274 278 273 256 258 254 249 264 212 208 209 195 193 193 194 191 182 192 205 214 209 203
272 271 266 258 257 258 256 248 250 253 254 261 266 269 271 275 269 265 262 263 259 245 259 247 221 205 193 193 197 195 200 177 182 185 186 193 166 161
280 277 280 278 258 247 245 245 254 259 258 268 271 271 276 276 267 261 251 245 257 259 233 237 220 216 198 193 194 191 178 172 174 168 174 164 158 157
273 268 270 262 265 259 244 237 240 239 237 250 260 262 267 263 261 244 243 245 250 260 226 240 220 222 219 151 159 163 163 171 168 163 169 168 162 160
267 269 269 270 261 257 260 257 249 247 240 236 244 255 258 251 252 238 242 249 257 246 221 235 194 198 169 115 126 142 158 160 168 160 166 171 174 163
267 268 266 268 263 281 281 264 258 257 267 256 247 237 236 232 240 225 235 214 199 205 181 233 205 151 168 147 114 124 140 158 151 153 168 163 149 128
267 259 261 272 305 279 265 249 246 260 216 199 114 99 181 203 185 194 170 178 136 157 200 222 174 172 161 98 99 122 109 98 128 149 150 150 156 138
264 270 294 251 12 320 340 152 134 129 118 101 96 105 99 112 101 91 110 103 126 237 194 207 193 187 224 120 125 145 153 147 125 102 93 89 197 139
264 279 284 6 8 311 12 100 169 164 134 128 113 93 76 107 176 136 203 213 215 283 130 222 202 202 187 134 149 129 103 94 103 108 101 85 71 69
258 265 191 322 287 297 242 217 231 221 138 137 128 119 121 134 154 161 168 164 163 59 87 188 284 196 215 179 140 142 141 91 100 115 118 117 116 128
253 252 97 325 291 283 197 203 240 111 173 143 117 116 116 142 201 177 142 148 169 148 162 172 282 329 197 148 153 148 128 136 109 103 102 90 78 60
209 148 142 253 260 246 178 193 135 186 141 122 145 149 163 181 185 179 167 172 167 161 154 73 85 74 63 24 85 130 131 104 115 132 108 93 58 65
119 130 220 204 227 201 145 133 108 157 109 119 119 145 164 167 157 172 170 169 145 141 137 144 140 122 102 67 29 129 114 113 107 100 103 101 80 68
150 194 120 208 224 154 148 117 86 68 68 68 93 124 89 108 158 154 143 123 147 150 158 149 162 151 157 126 55 19 105 116 108 78 73 79 108 89
336 179 140 169 194 119 105 100 113 103 92 89 82 78 95 150 144 154 148 146 140 150 138 163 184 190 185 146 114 22 46 119 113 100 92 82 82 96
125 166 169 203 101 97 92 84 79 73 81 86 69 48 23 81 117 128 125 145 162 165 143 111 52 88 107 105 94 81 62 60 78 120 126 107 112 120
220 197 138 185 120 106 104 114 126 110 94 77 59 44 22 356 15 296 125 148 148 105 91 121 134 125 108 122 114 114 103 89 76 74 45 44 168 150
146 157 127 175 123 126 118 91 90 75 56 45 26 24 356 339 325 35 56 118 114 122 129 122 85 82 99 113 120 119 116 111 111 84 51 27 87 92